Total_Precipitation_Accumulation
0.03 0.06 0.09 0.11 0.12 0.10 0.07 0.04 0.06 0.08 0.15 0.13 0.15 0.14 0.13 0.10 0.07 0.06 0.06 0.06 0.06 0.07 0.11 0.14 0.14 0.16 0.19 0.23 0.26 0.27 0.25 0.28 0.30 0.30 0.25 0.20 0.18 0.17 0.19 0.22 0.26 0.34 0.35 0.34
0.03 0.05 0.08 0.10 0.12 0.08 0.06 0.04 0.05 0.05 0.08 0.08 0.11 0.13 0.11 0.08 0.08 0.09 0.10 0.09 0.09 0.10 0.13 0.14 0.16 0.18 0.21 0.26 0.28 0.26 0.28 0.29 0.31 0.35 0.32 0.30 0.30 0.32 0.36 0.39 0.46 0.49 0.46 0.45
0.04 0.06 0.08 0.14 0.11 0.08 0.07 0.06 0.06 0.07 0.09 0.10 0.13 0.20 0.18 0.12 0.11 0.11 0.09 0.08 0.09 0.11 0.12 0.13 0.14 0.15 0.17 0.21 0.24 0.28 0.35 0.41 0.44 0.45 0.43 0.43 0.46 0.46 0.47 0.49 0.53 0.56 0.55 0.55
0.08 0.09 0.13 0.14 0.11 0.10 0.09 0.08 0.10 0.11 0.12 0.14 0.16 0.17 0.17 0.13 0.11 0.11 0.11 0.12 0.13 0.14 0.14 0.14 0.15 0.16 0.20 0.25 0.27 0.32 0.37 0.43 0.47 0.53 0.56 0.58 0.65 0.67 0.69 0.69 0.67 0.67 0.65 0.65
0.14 0.13 0.15 0.16 0.16 0.15 0.16 0.15 0.14 0.20 0.23 0.22 0.19 0.16 0.15 0.16 0.16 0.16 0.14 0.11 0.11 0.13 0.15 0.16 0.17 0.20 0.23 0.29 0.37 0.42 0.45 0.50 0.54 0.57 0.62 0.67 0.69 0.73 0.77 0.79 0.76 0.76 0.79 0.80
0.21 0.22 0.22 0.21 0.24 0.19 0.19 0.26 0.25 0.29 0.29 0.29 0.28 0.32 0.32 0.24 0.20 0.17 0.13 0.10 0.08 0.09 0.12 0.16 0.20 0.24 0.29 0.34 0.41 0.48 0.52 0.51 0.50 0.55 0.61 0.62 0.64 0.68 0.68 0.70 0.68 0.71 0.74 0.81
0.29 0.28 0.24 0.23 0.24 0.25 0.37 0.47 0.49 0.54 0.47 0.37 0.36 0.36 0.30 0.22 0.17 0.14 0.12 0.10 0.08 0.07 0.08 0.10 0.14 0.18 0.25 0.34 0.43 0.44 0.42 0.41 0.42 0.49 0.58 0.59 0.64 0.66 0.62 0.60 0.61 0.65 0.69 0.74
0.44 0.52 0.48 0.36 0.38 0.47 0.53 0.49 0.62 0.55 0.43 0.39 0.34 0.26 0.21 0.18 0.15 0.11 0.09 0.08 0.08 0.07 0.07 0.09 0.13 0.17 0.24 0.29 0.30 0.32 0.31 0.30 0.30 0.33 0.35 0.37 0.47 0.52 0.56 0.61 0.62 0.64 0.71 0.78
0.55 0.57 0.50 0.47 0.50 0.50 0.42 0.37 0.41 0.36 0.29 0.27 0.25 0.20 0.15 0.13 0.12 0.09 0.08 0.09 0.09 0.09 0.10 0.11 0.15 0.21 0.26 0.24 0.24 0.26 0.27 0.27 0.28 0.29 0.33 0.38 0.43 0.44 0.45 0.49 0.50 0.55 0.72 0.86
0.67 0.65 0.57 0.47 0.35 0.34 0.32 0.30 0.30 0.29 0.30 0.29 0.24 0.18 0.14 0.11 0.08 0.06 0.06 0.07 0.09 0.09 0.11 0.14 0.16 0.19 0.20 0.22 0.25 0.30 0.31 0.31 0.31 0.32 0.33 0.36 0.43 0.43 0.42 0.42 0.42 0.48 0.68 0.83
0.80 0.85 0.73 0.60 0.47 0.41 0.36 0.35 0.32 0.32 0.31 0.31 0.27 0.20 0.14 0.11 0.06 0.05 0.04 0.05 0.07 0.11 0.15 0.15 0.14 0.15 0.16 0.20 0.27 0.32 0.31 0.31 0.31 0.33 0.34 0.33 0.39 0.42 0.36 0.37 0.34 0.37 0.54 0.77
0.82 0.79 0.81 0.73 0.57 0.49 0.43 0.44 0.39 0.35 0.35 0.31 0.25 0.19 0.13 0.10 0.07 0.05 0.05 0.07 0.10 0.14 0.16 0.16 0.15 0.16 0.17 0.21 0.31 0.37 0.37 0.34 0.33 0.33 0.33 0.34 0.37 0.37 0.30 0.23 0.21 0.19 0.25 0.40
0.51 0.59 0.67 0.62 0.50 0.39 0.38 0.39 0.41 0.38 0.34 0.28 0.21 0.15 0.10 0.07 0.06 0.05 0.08 0.13 0.19 0.23 0.24 0.23 0.22 0.21 0.20 0.26 0.36 0.41 0.40 0.36 0.33 0.30 0.30 0.29 0.32 0.38 0.41 0.37 0.23 0.17 0.15 0.19
0.49 0.45 0.49 0.48 0.43 0.32 0.33 0.29 0.28 0.27 0.23 0.19 0.15 0.12 0.09 0.08 0.07 0.09 0.15 0.24 0.32 0.35 0.32 0.30 0.28 0.24 0.23 0.29 0.35 0.35 0.34 0.32 0.31 0.29 0.28 0.29 0.32 0.36 0.39 0.46 0.47 0.38 0.24 0.17
0.41 0.34 0.36 0.34 0.29 0.25 0.28 0.24 0.20 0.16 0.13 0.11 0.09 0.08 0.07 0.08 0.11 0.16 0.24 0.37 0.44 0.40 0.34 0.32 0.29 0.25 0.25 0.30 0.33 0.32 0.32 0.28 0.24 0.24 0.25 0.28 0.32 0.34 0.36 0.42 0.53 0.60 0.55 0.32
0.33 0.31 0.28 0.25 0.22 0.19 0.17 0.15 0.14 0.12 0.09 0.07 0.06 0.06 0.06 0.08 0.12 0.18 0.29 0.43 0.54 0.51 0.42 0.38 0.31 0.25 0.25 0.30 0.31 0.29 0.27 0.22 0.18 0.18 0.20 0.26 0.29 0.30 0.35 0.46 0.57 0.70 0.72 0.49
0.35 0.31 0.25 0.21 0.18 0.16 0.13 0.10 0.09 0.07 0.05 0.04 0.04 0.04 0.05 0.07 0.15 0.26 0.35 0.42 0.46 0.46 0.45 0.41 0.32 0.23 0.23 0.28 0.28 0.27 0.24 0.20 0.16 0.15 0.19 0.24 0.27 0.32 0.37 0.49 0.62 0.71 0.67 0.44
0.24 0.19 0.16 0.13 0.12 0.11 0.10 0.08 0.07 0.06 0.06 0.05 0.05 0.04 0.04 0.10 0.26 0.43 0.49 0.53 0.48 0.41 0.40 0.37 0.27 0.21 0.21 0.24 0.25 0.25 0.21 0.18 0.17 0.18 0.21 0.25 0.26 0.34 0.42 0.54 0.65 0.72 0.61 0.42
0.12 0.11 0.09 0.07 0.06 0.06 0.05 0.05 0.05 0.05 0.05 0.05 0.04 0.04 0.04 0.09 0.27 0.42 0.49 0.60 0.67 0.62 0.50 0.38 0.27 0.21 0.21 0.20 0.19 0.22 0.20 0.18 0.18 0.19 0.22 0.21 0.25 0.35 0.40 0.49 0.62 0.68 0.60 0.54
0.08 0.07 0.05 0.04 0.03 0.03 0.02 0.02 0.03 0.03 0.03 0.02 0.02 0.02 0.02 0.08 0.23 0.39 0.47 0.56 0.67 0.66 0.58 0.46 0.27 0.19 0.17 0.18 0.20 0.19 0.19 0.18 0.18 0.19 0.20 0.23 0.27 0.32 0.36 0.42 0.54 0.61 0.59 0.64
0.08 0.06 0.05 0.04 0.03 0.02 0.02 0.02 0.01 0.01 0.02 0.02 0.02 0.02 0.03 0.07 0.16 0.31 0.55 0.67 0.58 0.51 0.50 0.51 0.31 0.16 0.13 0.15 0.21 0.21 0.20 0.20 0.19 0.21 0.21 0.24 0.28 0.34 0.40 0.47 0.53 0.57 0.63 0.67
0.08 0.06 0.04 0.03 0.02 0.02 0.01 0.01 0.01 0.01 0.01 0.01 0.01 0.02 0.04 0.07 0.13 0.23 0.39 0.56 0.56 0.51 0.40 0.39 0.31 0.16 0.12 0.11 0.13 0.17 0.21 0.25 0.27 0.29 0.31 0.32 0.35 0.40 0.45 0.48 0.51 0.55 0.60 0.68
0.07 0.05 0.03 0.02 0.02 0.01 0.01 0.01 0.00 0.00 0.01 0.01 0.02 0.03 0.04 0.07 0.14 0.30 0.40 0.38 0.41 0.44 0.31 0.27 0.28 0.21 0.14 0.11 0.13 0.16 0.18 0.24 0.28 0.30 0.30 0.31 0.36 0.40 0.45 0.48 0.51 0.54 0.64 0.70
0.04 0.02 0.01 0.01 0.01 0.01 0.01 0.01 0.01 0.01 0.01 0.02 0.02 0.04 0.06 0.10 0.14 0.21 0.30 0.35 0.39 0.43 0.34 0.31 0.28 0.22 0.18 0.17 0.20 0.21 0.21 0.23 0.25 0.26 0.26 0.30 0.36 0.41 0.50 0.57 0.60 0.60 0.63 0.62
0.02 0.02 0.01 0.01 0.01 0.01 0.02 0.02 0.01 0.02 0.03 0.03 0.05 0.06 0.08 0.12 0.18 0.24 0.29 0.32 0.37 0.38 0.35 0.36 0.33 0.31 0.27 0.29 0.32 0.33 0.31 0.31 0.31 0.31 0.32 0.36 0.43 0.52 0.58 0.61 0.61 0.57 0.55 0.54
0.02 0.02 0.02 0.02 0.02 0.03 0.03 0.03 0.04 0.05 0.07 0.11 0.13 0.14 0.15 0.16 0.22 0.30 0.39 0.40 0.39 0.39 0.35 0.31 0.29 0.30 0.30 0.35 0.40 0.43 0.41 0.39 0.38 0.39 0.42 0.47 0.54 0.60 0.58 0.51 0.49 0.48 0.46 0.43
0.04 0.03 0.04 0.03 0.04 0.04 0.04 0.06 0.09 0.15 0.17 0.19 0.20 0.19 0.22 0.26 0.32 0.36 0.39 0.39 0.40 0.39 0.35 0.30 0.27 0.25 0.27 0.30 0.34 0.39 0.41 0.43 0.42 0.43 0.46 0.49 0.50 0.48 0.43 0.39 0.40 0.39 0.36 0.36